Regional Weather Roundup
Issued by NWS

Home | Current Version | Previous Version | Text Only | Print | Product List | Glossary On
Versions: 1 2 3 4 5 6 7 8 9 10 11 12 13 14 15 16 17 18 19 20 21 22 23 24 25 26 27 28 29 30 31 32 33 34 35 36 37 38 39 40 41 42 43 44 45 46 47 48 49 50
000
ASUS44 KFWD 190615
RWRTX
NORTH TEXAS HOURLY WEATHER ROUNDUP
NATIONAL WEATHER SERVICE FORT WORTH TX
100 AM CDT FRI SEP 19 2014

NOTE: "FAIR" INDICATES FEW OR NO CLOUDS BELOW 12,000 FEET WITH NO
SIGNIFICANT WEATHER AND/OR OBSTRUCTIONS TO VISIBILITY.

TXZ118-119-190700-
DALLAS/FORT WORTH METROPLEX

CITY           SKY/WX    TMP DP  RH WIND       PRES   REMARKS
DFW AIRPORT    MOCLDY    73  65  75 SE6       29.92F
6HR MIN TEMP:  73; 6HR MAX TEMP:  85;

DALLAS LOVE    CLOUDY    74  64  71 SE7       29.93S
6HR MIN TEMP:  73; 6HR MAX TEMP:  85;

FTW MEACHAM    MOCLDY    75  69  81 SE7       29.92S
6HR MIN TEMP:  75; 6HR MAX TEMP:  85;

DAL-EXECUTIVE  CLOUDY    72  65  78 SE5       29.93S
6HR MIN TEMP:  72; 6HR MAX TEMP:  86;

FTW-ALLIANCE   MOCLDY    73  68  84 SE5       29.92S
6HR MIN TEMP:  72; 6HR MAX TEMP:  82;

FTW-NAS-JRB    MOCLDY    78  69  73 SE5       29.97S
6HR MIN TEMP:  78; 6HR MAX TEMP:  87;

FTW-SPINKS       N/A     72  69  91 CALM      29.94F
6HR MIN TEMP:  72; 6HR MAX TEMP:  85;

ARLINGTON      MOCLDY    73  67  81 E6        29.93S
6HR MIN TEMP:  73; 6HR MAX TEMP:  86;

GRAND PRAIRIE  MOCLDY    73  65  77 E3        29.94F
6HR MIN TEMP:  73; 6HR MAX TEMP:  85;

ADDISON        CLOUDY    75  63  66 E5        29.95S
6HR MIN TEMP:  75; 6HR MAX TEMP:  84;

MESQUITE       CLOUDY    69  65  85 CALM      29.93F
6HR MIN TEMP:  69; 6HR MAX TEMP:  85;

LANCASTER      CLOUDY    69  64  85 CALM      29.94F
6HR MIN TEMP:  69; 6HR MAX TEMP:  80;

$$

TXZ091>094-102>105-117-120-121-131>134-190700-
NORTH CENTRAL TEXAS

CITY           SKY/WX    TMP DP  RH WIND       PRES   REMARKS
SHRMAN/DENISON MOCLDY    74  69  84 CALM      29.95F
6HR MIN TEMP:  73; 6HR MAX TEMP:  81;

GAINESVILLE    MOCLDY    72  68  87 CALM      29.96S
6HR MIN TEMP:  72; 6HR MAX TEMP:  79;

BOWIE          MOCLDY    71  69  94 CALM      29.95S
6HR MIN TEMP:  71; 6HR MAX TEMP:  78;

BRIDGEPORT     MOCLDY    72  71  98 CALM      29.96R
6HR MIN TEMP:  72; 6HR MAX TEMP:  80;

DECATUR        MOCLDY    73  70  91 CALM      29.95S
6HR MIN TEMP:  72; 6HR MAX TEMP:  80;

DENTON         MOCLDY    74  71  91 SE5       29.92F
6HR MIN TEMP:  73; 6HR MAX TEMP:  82;

MCKINNEY       PTCLDY    72  66  81 SE5       29.93F
6HR MIN TEMP:  72; 6HR MAX TEMP:  84;

GREENVILLE     PTCLDY    70  64  83 CALM      29.94F
ROCKWALL       MOCLDY    71  67  89 CALM      29.92F
6HR MIN TEMP:  71; 6HR MAX TEMP:  82;

TERRELL        MOCLDY    72  68  87 CALM      29.94S
6HR MIN TEMP:  72; 6HR MAX TEMP:  83;

WAXAHACHIE     CLOUDY    68  65  90 NE3       29.94F
6HR MIN TEMP:  68; 6HR MAX TEMP:  78;

CLEBURNE       CLOUDY    73  73 100 E6        29.95S
GRANBURY       MOCLDY    73  70  90 CALM      29.95S
6HR MIN TEMP:  73; 6HR MAX TEMP:  81;

$$

TXZ083>090-098>101-113>116-127>130-139>142-154-155-190700-
WESTERN NORTH TEXAS

CITY           SKY/WX    TMP DP  RH WIND       PRES   REMARKS
WICHITA FALLS  MOCLDY    72  69  90 E5        29.94S
6HR MIN TEMP:  72; 6HR MAX TEMP:  78;

WF-KICKAPOO    MOCLDY    73  70  92 E3        29.95S
6HR MIN TEMP:  73; 6HR MAX TEMP:  79;

VERNON         MOCLDY    71  68  88 CALM      29.96F
6HR MIN TEMP:  71; 6HR MAX TEMP:  79;

ABILENE        CLOUDY    72  69  90 SE3       29.97R
6HR MIN TEMP:  72; 6HR MAX TEMP:  74;

ABILENE-DYESS  CLOUDY    71  65  82 S1        29.95F
6HR MIN TEMP:  71; 6HR MAX TEMP:  73;

BRECKENRIDGE   CLOUDY    74  73  96 CALM      29.94S
6HR MIN TEMP:  74; 6HR MAX TEMP:  75;

GRAHAM         MOCLDY    73  69  88 CALM      29.93S
6HR MIN TEMP:  73; 6HR MAX TEMP:  79;

MINERAL WELLS  MOCLDY    71  68  90 SE6       29.92F
6HR MIN TEMP:  71; 6HR MAX TEMP:  81;

STEPHENVILLE   CLOUDY    73  69  89 CALM      29.97S
6HR MIN TEMP:  72; 6HR MAX TEMP:  82;

COMANCHE       CLOUDY    69  69 100 E5        29.94F
6HR MIN TEMP:  69; 6HR MAX TEMP:  77;

BROWNWOOD      CLOUDY    72  70  94 CALM      29.94S
COLEMAN        CLOUDY    71  69  93 CALM      29.94F
6HR MIN TEMP:  71; 6HR MAX TEMP:  74; 6HR PCP:  0.09;

BRADY          CLOUDY    70  70 100 SW5       29.94S
$$

TXZ143>147-156>162-174-175-190700-
CENTRAL TEXAS

CITY           SKY/WX    TMP DP  RH WIND       PRES   REMARKS
WACO           CLOUDY    72  70  93 NE7       29.91S
6HR MIN TEMP:  72; 6HR MAX TEMP:  75; 6HR PCP:  0.06;

WACO-MCGREGOR  CLOUDY    73  68  83 NE6       29.92R
6HR MIN TEMP:  73; 6HR MAX TEMP:  75; 6HR PCP:  0.02;

HILLSBORO      CLOUDY    72  68  89 E6        29.93S
6HR MIN TEMP:  72; 6HR MAX TEMP:  75;

CORSICANA      CLOUDY    72  68  87 E5        29.93S
6HR MIN TEMP:  70; 6HR MAX TEMP:  75;

MEXIA          CLOUDY    70  69  98 NE3       29.91F FOG
6HR MIN TEMP:  69; 6HR MAX TEMP:  72; 6HR PCP:  0.43;

HEARNE         CLOUDY    72  71  99 NE7       29.89F FOG
6HR MIN TEMP:  72; 6HR MAX TEMP:  74; 6HR PCP:  0.15;

CAMERON        CLOUDY    73  72  98 E3        29.89S
6HR MIN TEMP:  73; 6HR MAX TEMP:  75; 6HR PCP:  0.13;

TEMPLE         CLOUDY    73  70  88 NE5       29.90S
6HR MIN TEMP:  73; 6HR MAX TEMP:  73; 6HR PCP:  0.05;

KILLEEN        CLOUDY    73  72  94 N3        29.94R
                                      6HR PCP:  0.10;

KILLEEN-SKYLRK CLOUDY    73  68  83 NE5       29.90S
6HR MIN TEMP:  73; 6HR MAX TEMP:  73; 6HR PCP:  0.09;

FORT HOOD      CLOUDY    75  73  93 N3        29.91R
6HR MIN TEMP:  75; 6HR MAX TEMP:  76; 6HR PCP:  0.10;

GATESVILLE     CLOUDY    73  73 100 CALM      29.94S
HAMILTON       CLOUDY    73  73 100 CALM      29.94F
6HR MIN TEMP:  70; 6HR MAX TEMP:  76; 6HR PCP:  0.36;

LAMPASAS       CLOUDY    72  71  97 N6        29.90F
6HR MIN TEMP:  71; 6HR MAX TEMP:  73; 6HR PCP:  0.14;

$$

TXZ095>097-106>112-122>126-135>138-148>153-164>167-190700-
EAST TEXAS

CITY           SKY/WX    TMP DP  RH WIND       PRES   REMARKS
PARIS          MOCLDY    72  63  73 CALM      29.96S
6HR MIN TEMP:  72; 6HR MAX TEMP:  81;

SULPHUR SPRNGS PTCLDY    71  68  90 E3        29.96F
6HR MIN TEMP:  71; 6HR MAX TEMP:  82;

MOUNT PLEASANT PTCLDY    70  69  97 CALM      29.96S
6HR MIN TEMP:  69; 6HR MAX TEMP:  82;

GILMER         PTCLDY    70  70 100 CALM      29.95F
MINEOLA        PTCLDY    70  68  94 CALM      29.95S
TYLER          MOCLDY    72  68  88 SE3       29.93F
6HR MIN TEMP:  71; 6HR MAX TEMP:  76;

LONGVIEW       CLEAR     69  66  90 CALM      29.93F
6HR MIN TEMP:  69; 6HR MAX TEMP:  76;

MARSHALL       CLEAR     73  71  91 CALM      29.96S
6HR MIN TEMP:  73; 6HR MAX TEMP:  81;

ATHENS         CLOUDY    68  68 100 CALM      29.92F
PALESTINE      CLOUDY    72  71  98 CALM      29.93F
JACKSONVILLE   CLOUDY    71  70  96 E5        29.95F FOG
HENDERSON      PTCLDY    68  68  99 CALM      29.94F
6HR MIN TEMP:  68; 6HR MAX TEMP:  74;

NACOGDOCHES    MOCLDY    70  66  88 E3        29.93F
6HR MIN TEMP:  70; 6HR MAX TEMP:  72;

LUFKIN         CLOUDY    74  70  87 CALM      29.92F
6HR MIN TEMP:  74; 6HR MAX TEMP:  74;

$$

SUPPLEMENTAL OBSERVATIONS (CENTRAL)

CITY           SKY/WX    TMP DP  RH WIND       PRES   REMARKS
LAKE TEXOMA      N/A     73  70  88 E3          N/A
CADDO GRASSLND   N/A     72  66  83 SE2         N/A
PAT MAYSE LAKE   N/A     73  68  83 E5          N/A
GREENVILLE       N/A     72  66  83 E2          N/A
CEDAR HILL       N/A     70  64  83 E1          N/A



USA.gov is the U.S. government's official web portal to all federal, state and local government web resources and services.